Weather in Lahidne

Ukraine / Luhansk Region     49°25′31″N   38°20′01″E
temp.,
°C
wind,
m/s
gust,
m/s
humid.,
%
clouds,
%
prec.,
mm/h
press.,
hPa
HPBL,
m
20 april, tue
tue2000:00+11e367396 0.2 1013146
03:00+9ene238084 0.2 101251
06:00+9ene4885100 0.0 1010308
09:00+11e6980100 0.0 1010581
12:00+12ene4681100 0.4 1006599
15:00+11ese398866 7.6 1003577
18:00+11sse4891100 2.8 1001423
21:00+10s6139198 5.1 1001558
21 april, wed
wed2100:00+9s71290100 0.1 1001710
03:00+9wsw7128996 0.3 1005826
06:00+9wsw61193100 0.2 1008711
09:00+9sw698696 0.5 1011676
12:00+13wsw796054 0.5 10131583
15:00+13wsw6852100 0.6 10141634
18:00+12sw4860100 0.1 1015502
21:00+9ssw367651 0.3 101683
22 april, thu
thu2200:00+8ssw388957 0.6 1017175
03:00+7ssw389115 0.6 1018157
06:00+6ssw38925 0.0 1019176
09:00+12sw57685 0.0 1020605
12:00+16sw56518 0.4 10201781
15:00+17wsw5644100 0.5 10202322
18:00+14ssw2361100 0.0 102052
21:00+11wsw226871 0.5 102120
23 april, fri
fri2300:00+10s226682 0.3 102116
03:00+9ssw337512 0.3 102139
06:00+8sw22795 0.0 102227
09:00+14sw346211 0.0 1022546
12:00+17sw454665 1.1 10212162
15:00+16sse345779 1.2 1020184
18:00+16ssw575194 0.0 1019421
21:00+11s37625 0.0 1019115
24 april, sat
sat2400:00+12ssw41066100 0.0 1018361
03:00+8ssw4108195 0.0 1016234
06:00+8ssw51181100 0.0 1015334
09:00+10ssw61073100 0.0 1014584
12:00+6wnw6885100 0.2 1016722
15:00+10wsw7105371 0.3 10151876
18:00+9w8125820 0.3 10161431
21:00+5w712622 0.3 1018795